JO-97
1 43803U 18099AX  24337.40274008  .00021117  00000-0  11696-2 0  9996
2 43803  97.4972  32.7923 0009729  85.3532 274.8810 15.13800022328080
Suomi 100
1 43804U 18099AY  24337.57104973  .00017212  00000-0  99218-3 0  9996
2 43804  97.5044  32.6457 0015252  84.7337 275.5633 15.12351044328071
ISAT
1 43879U 18111D   24337.20732544  .00031240  00000-0  14874-2 0  9995
2 43879  97.6067 242.8430 0012734 128.9788 231.2582 15.19015694324846
UWE-4
1 43880U 18111E   24337.47803491  .00025955  00000-0  13087-2 0  9997
2 43880  97.6002 242.6152 0015600 140.2838 219.9540 15.17018321324872
Sparrow
1 43881U 18111F   24337.50727675  .00029342  00000-0  13686-2 0  9990
2 43881  97.6180 245.4181 0008591 161.0939 199.0616 15.19781566324969
Prox-1
1 44339U 19036A   24337.36162688  .00021648  00000-0  32344-2 0  9990
2 44339  23.9970 218.6286 0007556  80.3736 279.7613 14.73257135290013
SONATE
1 44400U 19038Q   24337.58929571  .00054373  00000-0  99507-3 0  9993
2 44400  97.7120 340.8634 0009990 211.4767 148.5886 15.49121166300002
Taurus 1
1 44530U 19059C   24337.82562058  .00015488  00000-0  31765-2 0  9995
2 44530  98.5898 103.2197 0010649 255.0602 104.9419 14.60746525276337
Duchifat 3
1 44854U 19089C   24337.68916477  .00041908  00000-0  15035-2 0  9997
2 44854  36.9508  98.4836 0010610  69.6513 290.5377 15.27723128273872
TO-108
1 44881U 19093C   24337.78681328  .00002722  00000-0  32660-3 0  9992
2 44881  97.8144  51.2896 0015141 127.7601 232.4988 14.84771329268050
FloripaSat 1
1 44885U 19093G   24337.74261403  .00011433  00000-0  10622-2 0  9992
2 44885  97.8316  59.3932 0012229 114.9311 245.3181 14.94482280268509
RS-44
1 44909U 19096E   24337.27920388  .00000031  00000-0  79925-4 0  9999
2 44909  82.5219 353.0791 0217806  18.5114 342.3755 12.79736533230478
UPMSat 2
1 46276U 20061E   24336.86180815  .00046736  00000-0  96169-3 0  9999
2 46276  97.2750  42.1438 0000440 183.3166 176.8081 15.45811691235962
AmicalSat
1 46287U 20061R   24337.42935528  .00272288  00000-0  19926-2 0  9991
2 46287  97.3197  47.5199 0002396 288.4187  71.6816 15.72392933235618
SALSAT
1 46495U 20068K   24337.34437077  .00015189  00000-0  75061-3 0  9994
2 46495  97.8385 301.5965 0014982  94.8407 265.4537 15.17855467229773
IDEASSat
1 47458U 21006AX  24337.58070210  .00985826  49058-3  18004-2 0  9991
2 47458  97.2880  41.6160 0005105 296.4620  63.6135 16.01469215214817
CubeSX-Sirius-HSE
1 47951U 21022V   24337.82080600  .00065387  00000-0  15484-2 0  9999
2 47951  97.4405 237.1307 0006535 258.0201 102.0313 15.41523877204398
CubeSX-HSE
1 47952U 21022W   24337.81770568  .00063778  00000-0  14917-2 0  9990
2 47952  97.4402 237.2704 0006543 255.1181 104.9342 15.41904824204402
KSU-Cubesat
1 47954U 21022Y   24337.79528717  .00094862  00000-0  16423-2 0  9998
2 47954  97.4409 239.8350 0004063 229.5770 130.5128 15.50580947204289
GRBAlpha
1 47959U 21022AD  24337.77580085  .00061893  00000-0  14493-2 0  9990
2 47959  97.4402 237.3956 0006428 255.0939 104.9596 15.41878952203223
Orbicraft-Zorkiy
1 47960U 21022AE  24337.81462592  .00081314  00000-0  15813-2 0  9996
2 47960  97.4442 239.6251 0004511 246.2816 113.7960 15.47298776204038
TUBIN
1 48900U 21059X   24337.77120421  .00040788  00000-0  96811-3 0  9996
2 48900  97.6619 128.7936 0005251 208.5497 151.5462 15.41582721190780
LEDSAT
1 49069U 21073D   24337.60357792  .00045093  00000-0  12274-2 0  9998
2 49069  97.4175  48.6904 0015333  47.1792 313.0739 15.37258697182201
CUTE
1 49263U 21088D   24336.62088119  .00059193  00000-0  18240-2 0  9990
2 49263  97.4765  42.6879 0010664 207.5813 152.4864 15.33349139175164
TeikyoSat 4
1 49396U 21102B   24337.37415915  .00005207  00000-0  35937-3 0  9995
2 49396  97.4381  16.5163 0014668  65.6023 294.6733 15.06116918168056
Z-Sat
1 49399U 21102E   24337.74525220  .00009198  00000-0  54366-3 0  9990
2 49399  97.4084  18.9686 0020128  41.2792 318.9956 15.11524682168421
KOSEN 1
1 49402U 21102H   24337.71375330  .00012403  00000-0  64790-3 0  9992
2 49402  97.4005  21.1175 0017888  23.2824 336.9215 15.15899633168639
HO-113
1 50466U 21131B   24337.77114778  .00001734  00000-0  56093-3 0  9991
2 50466  98.5217  62.0577 0003864 357.3303   2.7864 14.40310079154261
IRIS-A
1 51044U 22002BN  24337.00458423  .00063320  00000-0  12495-2 0  9992
2 51044  97.3618  44.2472 0004823 146.9460 213.2092 15.46948200160218
Planetum 1
1 52738U 22057G   24334.51223436  .16479580  26697-5  24945-3 0  9995
2 52738  97.5508 111.5244 0009582 276.9617  83.0596 16.48177112140342
Foresail-1
1 52766U 22057AL  24337.35649712  .00064478  00000-0  12588-2 0  9993
2 52766  97.5977 108.6127 0007523 251.9342 108.1088 15.47236902140303
SNUGLITE 2
1 52899U 22065F   24337.62271120  .00003514  00000-0  70754-3 0  9997
2 52899  98.1418 115.8980 0007355 354.0602   6.0511 14.62151319128869
IO-117
1 53106U 22080B   24331.77042742 -.00000003  00000-0  00000-0 0  9997
2 53106  70.1300 136.0386 0008362  70.8561 289.3004  6.42557781 55710
FO-118
1 54684U 22167C   24337.81292346  .00118178  00000-0  17625-2 0  9998
2 54684  97.6146 129.2453 0008485 268.7836  91.2445 15.54626712110245
SSS-2B
1 56184U 23054G   24337.76862520  .00447784  00000-0  17809-2 0  9994
2 56184  97.3365 240.4418 0004990 105.6925 254.4896 15.85545992 92330
SO-120
1 56992U 23084BU  24337.58203030  .00155390  00000-0  21604-2 0  9996
2 56992  97.5379 101.5397 0004671 163.3639 196.7770 15.56438760 82077
MRC-100
1 56993U 23084BV  24337.33602653  .00343069  00000-0  27299-2 0  9992
2 56993  97.5341 102.9710 0002440 223.4799 136.6271 15.70173262 82155
UmKA 1 (RS40S)
1 57172U 23091G   24337.79497246  .00010631  00000-0  62973-3 0  9995
2 57172  97.5887  28.3413 0014123 264.6323  95.3295 15.11502519 78925
CubeBel-2 (EU11S)
1 57175U 23091K   24337.80265428  .00015672  00000-0  87443-3 0  9994
2 57175  97.5888  28.6264 0012318 276.6965  83.2864 15.13580112 78942
VERONIKA
1 58261U 23174F   24337.67634310  .00053230  00000-0  15327-2 0  9991
2 58261  97.4423  52.1856 0009069   9.0378 351.1027 15.35538912 59422
KAFASAT
1 58317U 23174BP  24337.55910172  .00094959  00000-0  19914-2 0  9992
2 58317  97.4349  53.8834 0007481 335.4778  24.6114 15.45017766 59543
ENSO
1 58470U 23185J   24337.81318961  .00040843  00000-0  11936-2 0  9990
2 58470  97.4043  43.7665 0010456  44.8000 315.4085 15.35123977 55892
EIRSAT-1
1 58472U 23185L   24337.78389716  .00051973  00000-0  14098-2 0  9992
2 58472  97.4034  44.0746 0009647  44.4111 315.7905 15.37402982 55912
SONATE-2
1 59112U 24043Q   24337.62370279  .00024282  00000-0  93481-3 0  9992
2 59112  97.4959 100.6488 0013584  65.8534 294.4123 15.26278418 41422
MO-122
1 60209U 24125G   24337.34027512  .00028795  00000-0  10998-2 0  9994
2 60209  97.2981 186.0967 0024755  91.3791 269.0284 15.26298742 22994
GRBBeta
1 60237U 24128C   24337.50543201  .00008270  00000-0  67805-3 0  9990
2 60237  61.9945  17.3483 0029538   9.4204 350.7433 14.99600640 21812
Curium One
1 60242U 24128H   24337.40392107  .00014539  00000-0  11622-2 0  9992
2 60242  61.9851  17.7937 0029823   0.9056 359.2082 15.00124091 21807
ROBUSTA-3A
1 60243U 24128J   24337.82663913  .00012846  00000-0  10375-2 0  9998
2 60243  61.9916  16.6259 0027973 358.6231   1.4776 14.99849622 21860
CatSat
1 60246U 24125J   24337.84396505  .00019048  00000-0  75527-3 0  9992
2 60246  97.2787 187.3947 0049766  45.4009 315.1273 15.24254959 21172
CosmoGirlSat
1 60953U 98067WT  24336.98421192  .01101338  63406-3  19272-2 0  9999
2 60953  51.6144 192.1326 0011197 233.3032 126.6950 16.01474485 14830
Sakura
1 60954U 98067WU  24334.01561250  .09108413  12187-4  11947-2 0  9993
2 60954  51.6047 205.2539 0008835 243.5267 116.4851 16.34683424 14392
CySat-1
1 61501U 98067WZ  24336.33738880  .00299444  00000-0  23134-2 0  9998
2 61501  51.6309 203.6651 0012524 223.0405 136.9614 15.70356921  8458
DORA
1 61502U 98067XA  24332.70883455  .05178733  11718-4  30558-2 0  9997
2 61502  51.5964 218.3602 0015234 210.2249 149.7891 16.17571853  7924
AO-123
1 99130U 20499A   24337.20832176 -.00032524  00000-0 -13603-2 0 00000
2 99130 097.3811 201.5754 0018545 142.4874 083.0645 15.23514031000012
